This is the latest recevied weather packets stored in our database for station/object HB9TJR-3. If no packets are shown the sender has not sent any weather packets the latest 10 day(s).
| Time | Temp. | Humidity | Pressure | Rain* | Wind** | Luminosity | Snow |
|---|---|---|---|---|---|---|---|
| 1787734051 | 19.44° C | 80% | 869.5 hPa | 0 mm | - | - | - |
| 1787733094 | 18.89° C | 81% | 869.3 hPa | 0 mm | - | - | - |
| 1787733092 | 18.89° C | 81% | 869.3 hPa | 0 mm | - | - | - |
| 1787732131 | 18.89° C | 78% | 869.2 hPa | 0 mm | - | - | - |
| 1787731171 | 18.89° C | 76% | 869.3 hPa | 0 mm | - | - | - |
| 1787730266 | 18.89° C | 74% | 869.2 hPa | 0 mm | - | - | - |
| 1787730215 | 18.89° C | 74% | 869.2 hPa | 0 mm | - | - | - |
| 1787730211 | 18.89° C | 74% | 869.2 hPa | 0 mm | - | - | - |
| 1787729254 | 18.89° C | 75% | 869.2 hPa | 0 mm | - | - | - |
| 1787729251 | 18.89° C | 75% | 869.2 hPa | 0 mm | - | - | - |
| 1787728291 | 18.89° C | 75% | 869 hPa | 0 mm | - | - | - |
| 1787727331 | 18.33° C | 75% | 869 hPa | 0 mm | - | - | - |
| 1787726375 | 18.33° C | 75% | 869 hPa | 0 mm | - | - | - |
| 1787726371 | 18.33° C | 75% | 869 hPa | 0 mm | - | - | - |
| 1787725411 | 17.78° C | 77% | 869 hPa | 0 mm | - | - | - |
| 1787724451 | 17.78° C | 75% | 868.9 hPa | 0 mm | - | - | - |
| 1787723491 | 17.22° C | 75% | 868.8 hPa | 0 mm | - | - | - |
| 1787722564 | 16.67° C | 80% | 868.9 hPa | 0 mm | - | - | - |
| 1787722531 | 16.67° C | 80% | 868.9 hPa | 0 mm | - | - | - |
| 1787721571 | 16.11° C | 80% | 868.8 hPa | 0 mm | - | - | - |
| 1787720610 | 16.11° C | 80% | 868.8 hPa | 0 mm | - | - | - |
| 1787719650 | 16.11° C | 82% | 868.7 hPa | 0 mm | - | - | - |
| 1787718691 | 16.11° C | 81% | 868.7 hPa | 0 mm | - | - | - |
| 1787717731 | 16.11° C | 80% | 868.7 hPa | 0 mm | - | - | - |
| 1787716771 | 16.67° C | 80% | 868.6 hPa | 0 mm | - | - | - |
* Rain latest hour (hover to see other rain measurements)
** Current wind speed in m/s (hover to see current wind gust speed)